SCP
0 0 0 0 0 0 0 0 0 0 0 0 0 0 0 0 0 0 0 0 0 0 0 0 0 0 0 0 0 0 0 0 0 0 0 0 0 0 0 0 0 0 0
0 0 0 0 0 0 0 0 0 0 0 0 0 0 0 0 0 0 0 0 0 0 0 0 0 0 0 0 0 0 0 0 0 0 0 0 0 0 0 0 0 0 0
0 0 0 0 0 0 0 0 0 0 0 0 0 0 0 0 0 0 0 0 0 0 0 0 0 0 0 0 0 0 0 0 0 0 0 0 0 0 0 0 0 0 0
0 0 0 0 0 0 0 0 0 0 0 0 0 0 0 0 0 0 0 0 0 0 0 0 0 0 0 0 0 0 0 0 0 0 0 0 0 0 0 0 0 0 0
1 1 1 0 0 0 0 0 0 0 0 0 0 0 0 0 0 0 0 0 0 0 0 0 0 0 0 0 0 0 0 0 0 0 0 0 0 0 0 0 0 0 0
1 1 1 1 1 0 0 0 0 0 0 0 0 0 0 0 0 0 0 0 0 0 0 0 0 0 0 0 0 0 0 0 0 0 0 0 0 0 0 0 0 0 0
1 1 1 1 1 1 0 0 0 0 0 0 0 0 0 0 0 0 0 0 0 0 0 0 0 0 0 0 0 0 0 0 0 0 0 0 0 0 0 0 0 0 0
1 1 1 1 1 1 1 1 1 1 1 1 0 0 0 0 0 0 0 0 0 0 0 0 0 0 0 0 0 0 0 0 0 0 0 0 0 0 0 0 0 0 0
1 1 1 1 1 1 1 1 1 1 1 1 1 1 0 0 0 0 0 0 0 0 0 0 0 0 0 0 0 0 0 0 0 0 0 0 0 0 0 0 0 0 0
2 2 2 1 1 1 1 1 1 1 1 1 1 1 1 0 0 0 0 0 1 1 1 1 0 0 0 0 0 0 0 0 0 0 0 0 0 0 0 0 0 0 0
2 2 2 2 1 1 1 1 1 1 1 1 1 1 1 1 0 0 0 0 1 1 1 1 1 0 0 0 0 0 0 0 0 0 0 0 0 0 0 0 0 0 0
2 2 2 2 1 1 1 1 1 1 1 1 1 1 1 1 0 0 0 0 1 1 1 1 0 0 0 0 0 0 0 0 0 0 0 0 0 0 0 0 0 0 0
2 2 2 1 1 1 1 1 1 1 1 1 1 1 1 1 0 0 0 0 0 0 1 0 0 0 0 0 0 0 0 0 0 0 0 0 0 0 0 0 0 0 0
2 2 1 1 1 1 1 1 1 1 1 1 1 1 1 1 0 0 0 0 0 0 0 0 0 0 0 0 0 0 0 0 0 0 0 0 0 0 0 0 0 0 0
2 1 1 1 1 1 1 1 1 1 1 1 1 1 1 1 0 0 0 0 0 0 0 0 0 0 0 0 0 0 0 0 0 0 0 0 0 0 0 0 0 0 0
1 1 1 1 1 1 1 0 0 0 0 0 0 1 1 0 0 0 0 0 0 0 0 0 0 0 0 0 0 0 0 0 0 0 0 0 0 0 0 0 0 0 0
1 1 1 1 1 1 1 0 0 0 0 0 0 0 0 0 0 0 0 0 0 0 0 0 0 0 0 0 0 0 0 0 0 0 0 0 0 0 0 0 0 0 0
1 1 1 1 1 1 0 0 0 0 0 0 0 0 0 0 0 0 0 0 0 0 0 0 0 0 0 0 0 0 0 0 0 0 0 0 0 0 0 0 0 0 0
1 1 1 0 0 0 0 0 0 0 0 0 0 0 0 0 0 0 0 0 0 0 0 0 0 0 0 0 0 0 0 0 0 0 0 0 0 0 0 0 0 0 0
1 0 0 0 0 0 0 0 0 0 0 0 0 0 0 0 0 0 0 0 0 0 0 0 0 0 0 0 0 0 0 0 0 0 0 0 0 0 0 0 0 0 0
1 0 0 0 0 0 0 0 0 0 0 0 0 0 0 0 0 0 0 0 0 0 0 0 0 0 0 0 0 0 0 0 0 0 0 0 0 0 0 0 0 0 0
0 0 0 0 0 0 0 0 0 0 0 0 0 0 0 0 0 0 0 0 0 0 0 0 0 0 0 0 0 0 0 0 0 0 0 0 0 0 0 0 0 0 0
0 0 0 0 0 0 0 0 0 0 0 0 0 0 0 0 0 0 0 0 0 0 0 0 0 0 0 0 0 0 0 0 0 0 0 0 0 0 0 0 0 0 0
0 0 0 0 0 0 0 0 0 0 0 0 0 0 0 0 0 0 0 0 0 0 0 0 0 0 0 0 0 0 0 0 0 0 0 0 0 0 0 0 0 0 0
0 0 0 0 0 0 0 0 0 0 0 0 0 0 0 0 0 0 0 0 0 0 0 0 0 0 0 0 0 0 0 0 0 0 0 0 0 0 0 0 0 0 0
0 0 0 0 0 0 0 0 0 0 0 0 0 0 0 0 0 0 0 0 0 0 0 0 0 0 0 0 0 0 0 0 0 0 0 0 0 0 0 0 0 0 0
Wind_Speed
7 6 6 5 5 4 3 3 2 2 2 2 1 1 1 1 1 0 0 1 1 2 2 2 2 2 2 1 1 2 2 2 2 1 1 3 3 2 3 2 3 3 5
8 7 7 6 5 5 4 3 3 3 3 2 2 2 1 1 1 1 1 1 1 2 2 2 2 1 1 2 1 1 1 1 2 2 1 2 2 2 2 2 2 2 3
9 8 7 7 6 5 5 5 4 4 3 3 2 2 1 1 1 1 1 1 1 1 1 2 2 2 2 2 1 1 0 1 2 2 2 2 2 2 2 2 2 1 2
9 8 8 7 7 6 6 5 5 4 4 3 3 2 2 1 1 1 1 1 1 1 2 2 2 2 2 2 1 1 0 0 1 2 2 2 2 2 2 2 2 2 1
9 9 8 7 7 6 6 6 5 4 4 3 3 2 2 1 1 0 1 1 1 1 2 2 3 5 7 5 3 2 1 0 1 1 2 2 2 2 2 1 1 2 2
9 9 8 7 7 7 6 6 5 5 4 3 3 2 2 2 4 3 2 1 1 1 1 1 2 3 4 5 5 6 5 2 2 1 1 1 1 1 1 2 1 1 1
9 9 8 8 8 7 7 6 6 5 5 4 3 3 3 3 4 3 2 0 1 1 1 1 1 2 2 2 3 3 4 4 3 2 1 1 0 0 1 2 1 1 1
9 9 8 8 8 8 7 6 6 5 4 4 4 3 3 3 2 1 0 2 2 1 1 1 1 2 2 2 2 3 4 4 3 1 2 1 1 1 1 2 1 2 2
9 9 8 8 8 8 8 7 6 5 5 4 4 4 3 3 2 0 2 3 2 2 2 2 2 1 4 3 2 2 3 3 5 6 5 4 4 4 2 1 1 2 2
9 8 8 8 8 8 7 7 6 6 5 5 4 4 3 3 2 0 3 2 3 2 3 3 4 3 3 2 1 1 2 2 2 3 3 3 2 2 0 1 2 2 1
7 7 7 7 7 7 7 6 6 6 5 5 5 4 3 2 4 2 1 1 2 2 2 2 3 4 2 2 1 1 1 1 1 2 2 2 2 1 1 1 2 3 3
7 7 7 7 6 6 7 6 6 6 6 6 5 4 3 3 3 3 2 1 2 2 1 2 4 4 3 2 1 2 2 3 1 1 1 1 1 1 1 1 1 1 2
9 8 7 6 6 6 6 7 6 6 5 5 4 4 4 4 4 4 3 2 1 1 2 4 4 4 5 4 3 1 2 2 1 1 1 1 1 1 0 1 2 2 1
8 8 7 7 7 6 5 5 5 5 4 4 4 4 4 4 3 3 4 4 5 4 3 5 5 3 2 2 3 3 1 0 1 0 0 0 1 1 0 0 1 1 1
7 7 7 6 7 6 5 3 3 3 1 2 3 3 4 4 2 1 1 2 2 2 3 3 3 3 3 2 2 1 1 1 1 1 0 0 0 0 0 1 1 2 1
7 7 5 5 5 6 6 5 6 4 5 4 3 2 3 4 6 3 2 2 2 2 2 2 2 2 1 2 1 1 1 1 1 1 1 1 0 0 0 1 1 2 2
6 6 5 5 5 5 5 6 5 4 4 4 3 3 3 6 6 5 4 3 2 3 3 2 1 1 1 1 1 1 1 0 1 1 1 1 1 1 1 1 1 1 2
6 6 5 5 5 5 5 5 5 5 5 4 4 5 6 6 7 6 6 5 4 3 3 2 2 2 1 1 1 1 1 1 1 1 1 1 1 1 1 1 1 2 3
6 5 5 4 4 4 4 5 4 5 4 5 5 5 5 6 7 6 7 5 4 4 3 2 2 2 2 2 1 1 1 1 1 1 1 1 1 2 2 2 2 1 3
5 6 5 5 5 5 5 5 4 4 4 4 4 5 6 6 5 6 5 4 4 3 3 3 2 2 2 2 2 2 2 2 2 2 1 2 2 2 2 3 3 3 3
5 6 7 5 5 5 5 5 5 5 5 5 4 4 4 5 5 5 5 5 4 4 3 3 3 3 3 2 2 3 3 2 2 2 2 2 2 2 2 3 3 3 3
5 6 6 5 5 5 4 4 5 5 5 5 5 6 6 5 5 5 5 5 4 4 4 4 3 3 2 3 3 3 3 2 2 2 2 3 3 3 3 3 3 3 3
5 6 6 5 5 5 5 5 5 5 5 5 5 6 6 5 4 4 4 4 4 3 4 4 4 3 3 3 3 3 3 2 1 2 3 3 3 3 3 3 4 4 4
5 6 6 5 5 5 5 5 5 5 5 5 5 5 5 4 4 4 4 4 4 3 3 4 4 4 4 4 3 3 1 1 2 3 4 4 4 4 3 3 4 4 4
5 6 5 5 5 5 5 5 5 5 5 5 5 4 5 5 5 4 4 4 4 4 5 4 4 4 5 5 3 1 3 2 2 4 4 4 4 4 4 4 4 4 4
5 6 5 5 5 5 5 5 6 6 5 5 5 5 5 5 5 5 5 5 5 4 4 4 5 5 5 4 3 3 3 2 2 4 5 4 4 4 4 4 5 5 4
Wind_Direction
175 175 173 170 172 174 173 169 163 156 149 157 151 138 125 112 101 87 341 21 4 17 7 6 338 337 322 290 258 248 252 238 225 249 119 121 136 152 138 154 152 156 123
170 169 171 168 167 166 162 158 156 153 154 149 139 123 112 93 73 52 6 27 25 26 18 5 348 358 352 320 312 279 253 236 214 205 180 153 156 162 153 165 151 142 124
168 171 169 169 169 165 158 155 155 153 146 138 128 116 99 83 80 65 32 29 29 26 24 15 9 14 4 6 340 332 239 188 192 190 177 147 153 142 154 157 139 135 149
170 172 169 171 169 164 160 157 156 155 150 144 134 126 119 107 95 99 103 85 64 51 45 35 27 27 23 11 23 21 4 151 167 175 160 157 143 152 182 181 163 162 175
172 170 170 168 165 164 161 159 157 157 154 147 143 139 140 141 55 48 146 125 103 76 58 55 55 53 38 24 14 24 36 210 184 176 174 170 160 172 191 200 173 163 150
173 170 166 166 167 167 166 161 157 154 150 147 146 145 142 83 45 19 337 107 92 81 65 64 97 97 83 72 54 39 21 356 331 294 219 183 172 190 184 216 210 209 175
172 169 167 170 172 170 169 165 162 158 154 154 149 145 125 88 61 52 2 92 83 55 42 30 31 73 99 99 108 116 70 42 19 327 333 349 182 194 227 226 235 284 310
171 172 171 171 173 170 169 169 168 164 162 159 154 146 133 106 88 98 152 140 95 67 43 30 41 37 36 29 85 86 76 63 47 41 36 10 20 4 262 250 212 197 206
171 172 173 175 175 173 172 172 169 165 160 158 148 146 142 123 96 135 240 148 131 108 79 53 45 71 37 12 100 99 94 104 92 77 62 64 57 42 356 271 222 217 199
170 170 170 173 175 173 171 169 164 163 160 154 143 148 145 134 111 89 262 168 142 140 125 107 67 50 41 2 136 124 112 96 100 114 114 127 129 124 154 299 294 274 254
160 161 163 167 170 167 162 161 160 159 153 151 149 146 143 136 124 101 309 226 162 158 143 128 96 94 74 23 336 80 36 311 139 127 124 121 129 126 119 85 346 324 319
153 153 155 160 160 155 157 159 159 159 160 161 161 161 147 134 114 116 111 338 321 150 138 112 104 119 116 84 75 49 295 263 181 147 121 98 84 62 59 54 46 357 350
153 150 151 152 149 155 163 164 167 174 175 172 173 170 153 137 126 123 131 122 19 123 92 84 110 146 157 137 132 207 233 211 157 145 122 91 80 70 82 132 150 169 179
153 150 154 156 156 155 168 174 173 175 177 179 176 171 160 157 151 152 153 150 152 154 144 136 151 157 160 135 161 172 184 30 328 234 111 81 78 103 105 333 303 258 229
154 156 160 162 154 154 153 135 164 136 145 189 173 169 172 168 134 100 196 171 168 140 163 166 157 150 152 137 126 117 162 157 188 248 250 148 120 9 5 353 321 304 300
159 162 166 162 158 157 150 132 64 78 92 82 66 83 118 113 131 134 108 95 105 159 212 167 153 151 150 142 144 149 168 152 202 232 262 275 260 256 300 310 302 304 313
165 162 165 165 164 165 163 160 145 112 95 103 113 110 114 134 139 144 144 139 157 198 204 161 164 177 181 174 169 164 169 167 263 244 224 239 265 267 273 289 311 311 309
171 161 173 173 170 167 169 171 166 162 157 149 138 142 146 150 149 152 156 164 172 204 211 184 181 179 194 208 182 186 192 184 203 249 246 265 284 280 277 278 291 310 303
172 167 173 168 165 162 167 173 170 167 163 157 151 145 151 151 153 164 181 204 189 192 205 204 192 190 196 195 191 203 202 199 191 244 236 257 267 273 281 283 288 277 282
169 158 174 176 170 169 174 179 177 175 177 178 173 163 165 181 181 178 198 208 206 196 196 194 193 206 206 199 201 209 205 201 210 223 226 238 251 264 267 273 286 291 294
171 164 172 183 181 178 178 184 186 189 187 185 181 160 175 197 192 188 193 203 207 198 196 202 209 210 203 209 212 217 224 224 229 236 239 250 261 266 276 281 286 292 302
178 176 185 187 183 185 188 188 188 189 188 184 172 162 182 212 197 192 193 197 199 200 202 205 215 215 214 226 226 229 229 229 233 248 258 264 263 262 265 277 289 294 290
186 184 187 189 187 176 191 194 191 189 188 185 182 176 186 206 198 192 190 188 195 204 211 208 209 210 204 215 229 237 242 238 249 272 272 266 266 267 275 283 282 282 289
192 194 193 192 192 192 195 196 198 194 192 193 190 186 185 190 195 191 192 190 193 201 209 210 209 208 206 214 222 230 241 307 283 261 269 274 272 274 277 278 281 291 295
195 198 194 190 196 198 198 199 201 198 195 194 189 189 189 189 193 192 195 196 196 199 203 207 207 207 211 216 223 209 82 54 312 299 261 258 261 263 268 273 276 283 290
196 198 197 198 199 200 198 197 198 199 197 193 191 191 193 193 194 194 197 199 200 198 204 207 208 208 211 213 197 146 135 163 225 272 272 258 254 256 265 268 269 268 274